Location: Krasnoyarskiy Pitomnik
(51.1333°N, 71.6167°E)
Time: 10:12:02
(UTC+00:00)

CZ-4C R/B - Pass Details

Date: 22 October 2021
Orbit: 596 x 1405 km, 63.4° (Epoch: 06 December)

Event Time Altitude Azimuth Distance (km) Brightness Sun altitude
Exits shadow 22:00:33 36° 353° (N) 1,657 3.7 -35.7°
Maximum altitude 22:02:25 43° 28° (NNE) 1,551 3.7 -35.4°
Drops below altitude 10° 22:09:53 10° 98° (E) 3,279 5.8 -34.4°
Sets 22:13:07 0° 105° (ESE) 4,335 6.5 -34.0°
